Volver al catálogo

COSMOS 1348 DEB

LostHEO
NORAD 32775·DEBRIS·🇷🇺 Russia

Lanzado Apr 7, 1982 desde Plesetsk Cosmodrome

Loading…

Próximos Pases (próximas 24 horas)

TLE

ObsoletoSource: Space-Track

Época: Jul 3, 2010, 23:52 UTC

1 32775U 82029J   10184.99478141  .00000361  00000-0  10000-3 0  9996
2 32775  70.7107  30.5163 5077310 159.2344 232.3642  1.96639644 28029

Sigue COSMOS 1348 DEB en tiempo real con AllMySat

Download on the App Store